Weather in Karmakla

Russia / Novosibirsk Oblast     54°57′51″N   78°24′23″E
temp.,
°C
wind,
m/s
gust,
m/s
humid.,
%
clouds,
%
prec.,
mm/h
press.,
hPa
HPBL,
m
5 march, fri
fri501:00−3ssw91787100 0.6 1008619
04:00−4ssw81590100 0.1 1005541
07:00−6s91594100 0.3 1004534
10:00−3wsw111793100 0.7 1005920
13:00−5wsw101583100 0.9 1009969
16:00−5sw9158280 0.0 1012759
19:00−5sw10169490 0.4 1013916
22:00−4sw91594100 0.9 1012875
6 march, sat
sat601:00−4sw91593100 1.6 1013778
04:00−3sw91595100 0.7 1011806
07:00−4sw101694100 2.2 1011814
10:00−5ssw111793100 1.0 1009849
13:00−3sw101594100 1.9 10091012
16:00−2sw101593100 0.7 1007987
19:00−1sw101788100 1.1 1007852
22:00−2wsw9149391 0.1 1009730
7 march, sun
sun701:00−7w5118896 0.2 1012269
04:00−13w56920 0.0 101387
07:00−15wsw459330 0.0 101645
10:00−14sw3690100 0.0 1017103
13:00−10sw4585100 0.0 1019246
16:00−8s358595 0.0 1018257
19:00−8se479387 0.1 1016177
22:00−1ssw91592100 0.8 1013770
8 march, mon
mon801:00−2ssw91691100 0.8 1011571
04:00−2ssw81592100 0.0 1009587
07:00−3ssw81492100 0.1 1009424
10:00−3sw81689100 0.0 1007576
13:00−1ssw81487100 0.0 1006614
16:00−1ssw81388100 0.0 1005675
19:00−2sw61196100 0.3 1005569
22:00−5nw71095100 1.3 1008423
9 march, tue
tue901:00−9wnw599497 1.4 1012155
04:00−15w58961 0.0 1018101
07:00−17wsw459435 0.0 102176
10:00−16sw59930 0.0 1023168
13:00−11ssw6108825 0.0 1024426
16:00−9ssw7118897 0.0 1023495
19:00−9ssw6128998 0.0 1022362
22:00−10ssw71491100 0.0 1020322